period_start,C,m1,H,J0,J1,J2,J3,J4,J5,JA,JB,JC,JD,JJ,JK,JN,#
2015-07-09 00:03:06,0.04,0.23,0.00,23.88,27.67,30.24,4.72,26.54,1003.86,2037.68,3380.99,3249.98,3528.00,349.81,341.90,34.66,0000 0000 0000 0000 000000
2015-07-09 00:08:07,0.01,0.23,0.00,23.90,27.67,30.24,4.73,26.54,1003.76,2037.79,3380.98,3249.98,3528.00,349.94,342.11,34.69,0000 0000 0000 0000 000000
2015-07-09 00:13:09,-0.01,0.23,0.00,23.90,27.67,30.22,4.80,26.55,1003.80,2037.77,3380.96,3249.94,3528.00,350.31,342.48,34.71,0000 0000 0000 0000 000000
2015-07-09 00:18:10,0.01,0.23,0.00,23.92,27.67,30.23,4.61,26.50,1003.73,2037.78,3380.89,3249.91,3528.00,349.19,341.42,34.74,0000 0000 0000 0000 000000
2015-07-09 00:23:11,0.02,0.23,0.00,23.94,27.67,30.20,4.57,26.51,1003.55,2037.75,3380.77,3249.83,3528.00,349.58,341.70,34.77,0000 0000 0000 0000 000000
2015-07-09 00:28:12,0.01,0.23,0.00,23.95,27.67,30.21,4.67,26.50,1003.45,2037.88,3380.76,3249.81,3528.00,349.36,341.47,34.80,0000 0000 0000 0000 000000
2015-07-09 00:33:14,0.01,0.23,0.00,23.96,27.68,30.20,4.79,26.49,1003.43,2037.86,3380.57,3249.63,3527.99,350.19,342.31,34.83,0000 0000 0000 0000 000000
2015-07-09 00:38:15,-0.01,0.23,0.00,23.97,27.69,30.20,4.65,26.59,1003.43,2037.69,3380.19,3249.31,3527.95,349.50,341.65,34.86,0000 0000 0000 0000 000000
2015-07-09 00:43:17,-0.02,0.23,0.00,23.99,27.69,30.21,4.65,26.58,1003.26,2037.47,3380.03,3249.09,3527.85,349.77,341.94,34.89,0000 0000 0000 0000 000000
2015-07-09 00:48:18,-0.01,0.23,0.00,24.02,27.70,30.16,4.71,26.60,1003.04,2037.40,3380.09,3249.06,3527.78,349.97,342.00,34.92,0000 0000 0000 0000 000000
2015-07-09 00:53:19,-0.02,0.23,0.00,24.02,27.70,30.17,4.64,26.57,1002.97,2037.24,3380.05,3249.04,3527.55,350.05,341.92,34.95,0000 0000 0000 0000 000000
2015-07-09 00:58:20,-0.00,0.21,0.00,24.02,27.70,30.18,4.05,23.36,1003.25,2037.24,3386.90,3253.73,3533.42,308.64,301.25,0.00,0000 0000 0000 0000 000002
2015-07-09 01:03:22,-0.02,0.00,0.00,24.04,27.70,30.20,4.67,26.26,1003.43,2037.97,3479.16,3319.10,3617.98,349.99,341.95,0.01,0000 0000 0000 0000 000000
2015-07-09 01:08:23,-0.01,0.00,0.00,24.05,27.72,30.17,4.70,26.19,1003.42,2037.98,3477.11,3318.53,3617.02,349.77,341.74,0.04,0000 0000 0000 0000 000000
2015-07-09 01:13:24,-0.01,0.00,0.00,24.08,27.72,30.19,4.67,26.06,1003.42,2037.97,3476.32,3318.07,3616.17,349.90,341.87,0.06,0000 0000 0000 0000 000000
2015-07-09 01:18:25,0.00,0.00,0.00,24.11,27.72,30.20,4.62,26.12,1003.43,2037.95,3476.00,3318.00,3615.90,348.60,340.82,0.09,0000 0000 0000 0000 000000
2015-07-09 01:23:26,0.00,0.00,0.00,24.14,27.72,30.18,4.65,26.11,1003.43,2037.95,3475.95,3318.00,3615.22,349.86,341.90,0.12,0000 0000 0000 0000 000000
2015-07-09 01:28:28,0.01,0.00,0.00,24.16,27.73,30.17,4.71,26.05,1003.42,2037.96,3475.66,3318.00,3615.00,349.99,341.82,0.15,0000 0000 0000 0000 000000
2015-07-09 01:33:29,0.01,0.00,0.00,24.17,27.75,30.18,4.66,26.09,1003.38,2037.96,3475.06,3317.99,3614.97,350.02,341.78,0.18,0000 0000 0000 0000 000000
2015-07-09 01:38:30,0.00,0.00,0.00,24.20,27.75,30.15,4.66,26.09,1003.42,2037.88,3475.00,3317.97,3614.43,350.01,341.81,0.21,0000 0000 0000 0000 000000
2015-07-09 01:43:31,0.01,0.00,0.00,24.22,27.75,30.17,4.68,26.12,1003.42,2037.89,3474.99,3317.95,3614.03,350.19,341.86,0.24,0000 0000 0000 0000 000000
2015-07-09 01:48:33,-0.02,0.00,0.00,24.24,27.77,30.17,4.73,26.06,1003.42,2037.79,3474.97,3317.90,3614.00,350.18,341.94,0.27,0000 0000 0000 0000 000000
2015-07-09 01:53:34,0.05,0.00,0.00,24.27,27.77,30.18,4.71,26.11,1003.23,2037.75,3474.59,3317.57,3613.97,350.06,341.77,0.30,0000 0000 0000 0000 000000
2015-07-09 01:58:35,-0.04,0.00,0.00,24.30,27.77,30.17,4.68,26.02,1002.96,2037.37,3474.13,3317.11,3613.49,349.77,341.19,0.33,0000 0000 0000 0000 000000
2015-07-09 02:03:36,0.01,0.00,0.00,24.32,27.80,30.19,4.69,26.06,1002.94,2037.25,3474.06,3317.04,3613.16,349.90,341.26,0.36,0000 0000 0000 0000 000000
2015-07-09 02:08:37,-0.02,0.00,0.00,24.34,27.80,30.18,4.69,25.96,1002.95,2037.15,3474.01,3317.02,3613.01,350.15,341.64,0.39,0000 0000 0000 0000 000000
2015-07-09 02:13:38,0.01,0.00,0.00,24.36,27.80,30.18,4.69,25.89,1002.94,2037.20,3474.00,3317.01,3613.00,349.62,340.93,0.42,0000 0000 0000 0000 000000
2015-07-09 02:18:40,-0.00,0.00,0.00,24.39,27.82,30.20,4.65,25.89,1002.94,2037.18,3473.99,3317.00,3612.98,349.60,341.02,0.45,0000 0000 0000 0000 000000
2015-07-09 02:23:41,-0.01,0.00,0.00,24.41,27.82,30.21,4.66,25.86,1002.94,2037.06,3473.97,3317.00,3612.82,349.69,341.21,0.47,0000 0000 0000 0000 000000
2015-07-09 02:28:42,0.01,0.00,0.00,24.44,27.85,30.21,4.64,25.90,1002.94,2037.06,3473.86,3317.00,3612.40,349.65,340.98,0.50,0000 0000 0000 0000 000000
2015-07-09 02:33:43,0.02,0.00,0.00,24.46,27.85,30.22,4.71,25.88,1002.94,2037.05,3473.32,3316.99,3612.07,349.89,341.30,0.53,0000 0000 0000 0000 000000
2015-07-09 02:38:45,0.01,0.00,0.00,24.47,27.87,30.24,4.73,25.93,1002.94,2037.02,3473.01,3316.86,3612.00,350.51,341.89,0.56,0000 0000 0000 0000 000000
2015-07-09 02:43:46,0.02,0.00,0.00,24.50,27.87,30.25,4.72,25.96,1002.95,2037.02,3473.00,3316.35,3611.99,350.39,341.48,0.59,0000 0000 0000 0000 000000
2015-07-09 02:48:47,0.01,0.00,0.00,24.53,27.90,30.26,4.62,25.93,1002.96,2037.01,3472.88,3316.04,3611.85,349.97,341.17,0.62,0000 0000 0000 0000 000000
2015-07-09 02:53:48,0.03,0.00,0.00,24.55,27.90,30.27,4.78,25.82,1002.95,2037.00,3472.27,3316.00,3611.23,350.28,341.59,0.65,0000 0000 0000 0000 000000
2015-07-09 02:58:49,0.00,0.00,0.00,24.57,27.92,30.30,4.61,25.89,1002.94,2037.00,3472.02,3316.00,3611.01,349.90,341.48,0.68,0000 0000 0000 0000 000000
2015-07-09 03:03:50,0.00,0.00,0.00,24.59,27.93,30.30,4.70,25.77,1002.94,2037.00,3472.00,3315.97,3610.99,350.03,341.24,0.71,0000 0000 0000 0000 000000
2015-07-09 03:08:51,0.01,0.00,0.00,24.62,27.95,30.31,4.75,25.75,1002.94,2037.00,3471.89,3315.88,3610.92,350.11,341.07,0.74,0000 0000 0000 0000 000000
2015-07-09 03:13:53,0.06,0.01,0.00,24.62,27.96,30.34,4.63,25.79,1002.95,2037.00,3471.39,3315.31,3610.23,350.12,341.19,0.77,0000 0000 0000 0000 000000
2015-07-09 03:18:54,0.01,0.01,0.00,24.65,27.97,30.35,4.63,25.70,1002.96,2037.00,3471.03,3315.04,3610.01,349.74,341.05,0.80,0000 0000 0000 0000 000000
2015-07-09 03:23:55,0.00,0.01,0.00,24.67,28.00,30.36,4.76,25.84,1002.96,2036.99,3471.00,3315.00,3610.00,350.68,341.65,0.83,0000 0000 0000 0000 000000
2015-07-09 03:28:56,0.01,0.01,0.00,24.67,28.01,30.37,4.73,25.87,1002.96,2036.99,3470.97,3315.00,3609.90,350.10,341.09,0.86,0000 0000 0000 0000 000000
2015-07-09 03:33:57,0.02,0.01,0.00,24.70,28.02,30.39,4.67,25.78,1002.97,2036.95,3470.70,3314.96,3609.17,350.16,341.22,0.88,0000 0000 0000 0000 000000
2015-07-09 03:38:59,0.02,0.01,0.00,24.72,28.05,30.40,4.75,25.85,1002.98,2036.93,3470.18,3314.74,3609.03,350.62,341.74,0.91,0000 0000 0000 0000 000000
2015-07-09 03:44:00,0.01,0.01,0.00,24.72,28.06,30.42,4.70,25.84,1002.95,2036.90,3470.01,3314.21,3609.00,349.86,340.92,0.94,0000 0000 0000 0000 000000
2015-07-09 03:49:01,0.00,0.01,0.00,24.76,28.07,30.43,4.71,25.77,1002.94,2036.80,3469.99,3314.06,3608.98,350.66,341.56,0.97,0000 0000 0000 0000 000000
2015-07-09 03:54:02,0.01,0.01,0.00,24.77,28.10,30.46,4.70,25.69,1002.94,2036.84,3469.84,3314.03,3608.86,350.22,341.33,1.00,0000 0000 0000 0000 000000
2015-07-09 03:59:03,0.03,0.01,0.00,24.78,28.11,30.46,4.73,25.73,1002.94,2036.85,3469.09,3313.99,3608.19,350.71,341.87,1.03,0000 0000 0000 0000 000000
2015-07-09 04:04:04,-0.04,0.01,0.00,24.81,28.12,30.48,4.78,25.68,1002.94,2036.68,3468.99,3313.92,3608.00,350.40,341.32,1.06,0000 0000 0000 0000 000000
2015-07-09 04:09:06,0.11,0.01,0.00,24.84,28.15,30.50,4.69,25.73,1002.94,2036.73,3468.45,3313.27,3607.98,349.82,340.66,1.09,0000 0000 0000 0000 000000
2015-07-09 04:14:07,0.03,0.01,0.00,24.86,28.16,30.50,4.69,25.80,1002.77,2036.95,3467.97,3313.00,3607.42,350.28,341.10,1.12,0000 0000 0000 0000 000000
2015-07-09 04:19:08,0.02,0.01,0.00,24.87,28.17,30.52,4.63,25.82,1002.57,2036.94,3467.48,3312.99,3607.01,349.77,340.67,1.15,0000 0000 0000 0000 000000
2015-07-09 04:24:09,0.01,0.01,0.00,24.89,28.20,30.55,4.75,25.72,1002.49,2036.85,3467.01,3312.64,3606.88,351.16,341.81,1.18,0000 0000 0000 0000 000000
2015-07-09 04:29:11,0.01,0.01,0.00,24.91,28.21,30.55,4.71,25.75,1002.48,2036.59,3466.72,3312.04,3606.12,350.36,340.91,1.21,0000 0000 0000 0000 000000
2015-07-09 04:34:12,0.01,0.01,0.00,24.92,28.23,30.58,4.52,25.64,1002.58,2036.48,3466.13,3312.00,3606.00,349.06,339.80,1.24,0000 0000 0000 0000 000000
2015-07-09 04:39:13,-0.04,0.01,0.00,24.93,28.25,30.58,4.61,25.82,1002.83,2036.22,3465.99,3311.99,3605.85,349.48,340.34,1.27,0000 0000 0000 0000 000000
2015-07-09 04:44:15,0.01,0.01,0.00,24.95,28.27,30.60,4.70,25.76,1002.88,2036.12,3465.95,3311.91,3605.34,349.68,340.56,1.29,0000 0000 0000 0000 000000
2015-07-09 04:49:16,0.04,0.02,0.00,24.99,28.29,30.62,4.69,25.74,1002.84,2036.02,3465.28,3311.22,3605.01,349.89,340.59,1.32,0000 0000 0000 0000 000000
2015-07-09 04:54:17,0.01,0.02,0.00,25.03,28.30,30.63,4.50,25.73,1002.64,2036.01,3465.02,3311.02,3604.97,349.17,339.69,1.35,0000 0000 0000 0000 000000
2015-07-09 04:59:19,0.01,0.02,0.00,25.08,28.32,30.64,4.56,25.69,1002.70,2036.01,3464.98,3311.00,3604.57,349.58,340.03,1.38,0000 0000 0000 0000 000000
2015-07-09 05:04:20,0.03,0.02,0.00,25.13,28.35,30.65,4.64,25.77,1002.90,2036.00,3464.42,3310.93,3604.03,350.41,340.64,1.41,0000 0000 0000 0000 000000
2015-07-09 05:09:22,0.02,0.02,0.00,25.18,28.37,30.66,4.68,25.67,1002.94,2036.00,3464.04,3310.64,3604.00,349.78,340.19,1.44,0000 0000 0000 0000 000000
2015-07-09 05:14:23,0.03,0.02,0.00,25.23,28.40,30.68,4.76,25.70,1002.96,2036.00,3463.99,3310.08,3603.82,350.63,341.19,1.47,0000 0000 0000 0000 000000
2015-07-09 05:19:24,0.02,0.02,0.00,25.27,28.42,30.70,4.62,25.61,1002.96,2035.98,3463.66,3310.00,3603.15,349.56,339.96,1.50,0000 0000 0000 0000 000000
2015-07-09 05:24:25,0.01,0.02,0.00,25.32,28.45,30.73,4.71,25.80,1002.95,2035.96,3463.05,3309.97,3603.00,350.49,340.58,1.53,0000 0000 0000 0000 000000
2015-07-09 05:29:26,0.01,0.02,0.00,25.37,28.47,30.76,4.60,25.73,1002.95,2035.93,3463.00,3309.79,3602.89,349.47,339.91,1.56,0000 0000 0000 0000 000000
2015-07-09 05:34:28,0.00,0.02,0.00,25.42,28.51,30.78,4.53,25.93,1002.95,2035.67,3462.54,3309.18,3602.23,349.43,339.90,1.59,0000 0000 0000 0000 000000
2015-07-09 05:39:29,-0.06,0.02,0.00,25.47,28.53,30.81,4.66,25.88,1002.98,2035.18,3462.01,3309.00,3601.99,349.81,340.01,1.62,0000 0000 0000 0000 000000
2015-07-09 05:44:30,0.01,0.02,0.00,25.51,28.56,30.85,4.67,25.80,1003.13,2035.03,3461.85,3308.93,3601.63,349.99,340.13,1.65,0000 0000 0000 0000 000000
2015-07-09 05:49:31,0.05,0.02,0.00,25.56,28.60,30.89,4.75,25.87,1003.35,2035.00,3461.14,3308.29,3601.04,350.35,340.43,1.68,0000 0000 0000 0000 000000
2015-07-09 05:54:32,0.00,0.02,0.00,25.61,28.63,30.91,4.73,25.81,1003.43,2035.00,3461.00,3308.01,3600.97,350.08,340.25,1.70,0000 0000 0000 0000 000000
2015-07-09 05:59:33,0.01,0.02,0.00,25.67,28.66,30.96,4.74,25.85,1003.44,2034.97,3461.00,3307.99,3600.26,350.35,340.44,1.73,0000 0000 0000 0000 000000
2015-07-09 06:04:34,-0.03,0.02,0.00,25.72,28.70,30.99,4.67,25.82,1003.50,2034.65,3460.70,3307.70,3600.01,350.11,340.11,1.76,0000 0000 0000 0000 000000
2015-07-09 06:09:36,0.00,0.02,0.00,25.76,28.74,31.02,4.64,25.74,1003.83,2034.28,3459.98,3307.06,3599.72,349.88,340.16,1.79,0000 0000 0000 0000 000000
2015-07-09 06:14:37,0.08,0.02,0.00,25.80,28.78,31.07,4.65,25.78,1003.92,2034.02,3458.81,3306.25,3598.54,350.32,340.53,1.82,0000 0000 0000 0000 000000
2015-07-09 06:19:38,0.05,0.02,0.00,25.85,28.81,31.11,4.65,25.68,1003.92,2034.00,3458.01,3305.63,3597.89,349.83,339.67,1.85,0000 0000 0000 0000 000000
2015-07-09 06:24:39,0.06,0.03,0.00,25.89,28.85,31.15,4.66,25.73,1003.94,2034.00,3457.27,3304.98,3597.07,350.01,339.95,1.88,0000 0000 0000 0000 000000
2015-07-09 06:29:41,0.09,0.03,0.00,25.94,28.89,31.19,4.63,25.77,1004.01,2033.97,3456.24,3304.01,3596.03,350.39,340.38,1.91,0000 0000 0000 0000 000000
2015-07-09 06:34:42,0.10,0.03,0.00,25.99,28.93,31.22,4.66,25.75,1004.18,2033.90,3454.99,3302.84,3594.76,349.86,339.98,1.94,0000 0000 0000 0000 000000
2015-07-09 06:39:44,0.02,0.03,0.00,26.03,28.97,31.28,4.63,25.75,1004.41,2033.22,3453.32,3301.52,3593.26,349.65,339.75,1.97,0000 0000 0000 0000 000000
2015-07-09 06:44:45,0.15,0.03,0.00,26.07,29.01,31.32,4.61,25.88,1004.44,2033.01,3451.26,3299.86,3591.61,350.08,339.93,2.00,0000 0000 0000 0000 000000
2015-07-09 06:49:46,0.07,0.04,0.00,26.12,29.05,31.36,4.69,25.79,1004.47,2033.00,3449.98,3298.87,3590.32,350.35,340.26,2.03,0000 0000 0000 0000 000000
2015-07-09 06:54:48,0.08,0.04,0.00,26.16,29.09,31.40,4.70,25.77,1004.67,2032.98,3448.90,3298.02,3589.50,350.28,340.24,2.06,0000 0000 0000 0000 000000
2015-07-09 06:59:49,0.06,0.04,0.00,26.20,29.13,31.45,4.67,25.77,1004.87,2032.82,3447.80,3297.12,3588.57,350.37,340.35,2.09,0000 0000 0000 0000 000000
2015-07-09 07:04:50,-0.02,0.04,0.00,26.24,29.18,31.49,4.58,25.68,1004.90,2032.41,3446.98,3296.51,3587.93,349.97,339.84,2.11,0000 0000 0000 0000 000000
2015-07-09 07:09:51,0.01,0.04,0.00,26.27,29.22,31.52,4.59,25.68,1004.90,2032.07,3446.13,3295.98,3587.11,349.62,339.69,2.14,0000 0000 0000 0000 000000
2015-07-09 07:14:52,0.08,0.05,0.00,26.31,29.26,31.57,4.52,25.64,1004.91,2032.01,3445.29,3295.14,3586.31,349.79,339.76,2.17,0000 0000 0000 0000 000000
2015-07-09 07:19:53,0.04,0.05,0.00,26.36,29.30,31.61,4.65,25.76,1004.91,2031.99,3445.00,3294.69,3585.67,350.00,339.77,2.20,0000 0000 0000 0000 000000
2015-07-09 07:24:54,-0.01,0.05,0.00,26.39,29.34,31.66,4.71,25.76,1005.03,2031.83,3444.88,3294.06,3585.03,350.25,340.07,2.23,0000 0000 0000 0000 000000
2015-07-09 07:29:56,-0.07,0.04,0.00,26.44,29.38,31.70,4.64,25.81,1005.32,2031.16,3444.22,3293.93,3584.79,349.50,339.61,2.26,0000 0000 0000 0000 000000
2015-07-09 07:34:57,0.06,0.05,0.00,26.47,29.42,31.74,4.68,25.72,1005.39,2031.00,3443.60,3293.17,3584.05,350.10,340.17,2.29,0000 0000 0000 0000 000000
2015-07-09 07:39:58,0.02,0.05,0.00,26.50,29.46,31.78,4.53,25.70,1005.39,2030.99,3443.02,3292.97,3583.72,349.24,339.09,2.32,0000 0000 0000 0000 000000
2015-07-09 07:44:59,0.06,0.05,0.00,26.54,29.51,31.82,4.59,25.65,1005.39,2030.98,3442.48,3292.44,3583.06,349.57,339.32,2.35,0000 0000 0000 0000 000000
2015-07-09 07:50:00,-0.01,0.05,0.00,26.57,29.55,31.86,4.73,25.71,1005.39,2030.89,3441.99,3292.01,3582.98,349.94,339.84,2.38,0000 0000 0000 0000 000000
2015-07-09 07:55:01,-0.01,0.05,0.00,26.61,29.59,31.89,4.73,25.75,1005.41,2030.43,3441.32,3291.54,3582.24,350.40,340.18,2.41,0000 0000 0000 0000 000000
2015-07-09 08:00:03,0.00,0.05,0.00,26.65,29.63,31.93,4.56,25.61,1005.40,2030.04,3440.81,3290.96,3581.64,349.63,339.31,2.44,0000 0000 0000 0000 000000
2015-07-09 08:05:04,0.06,0.05,0.00,26.69,29.66,31.97,4.70,25.65,1005.51,2030.00,3440.03,3290.11,3580.93,350.13,339.86,2.47,0000 0000 0000 0000 000000
2015-07-09 08:10:05,0.03,0.05,0.00,26.74,29.71,32.00,4.57,25.65,1005.69,2029.99,3439.75,3289.87,3580.11,349.64,339.30,2.50,0000 0000 0000 0000 000000
2015-07-09 08:15:06,0.05,0.05,0.00,26.80,29.75,32.04,4.67,25.64,1005.85,2029.98,3439.05,3289.12,3579.92,350.50,340.21,2.52,0000 0000 0000 0000 000000
2015-07-09 08:20:08,-0.01,0.05,0.00,26.87,29.78,32.08,4.61,25.68,1005.85,2029.76,3438.74,3288.98,3579.19,350.16,339.69,2.55,0000 0000 0000 0000 000000
2015-07-09 08:25:09,-0.04,0.05,0.00,26.93,29.82,32.12,4.63,25.67,1005.80,2029.20,3438.05,3288.43,3578.98,349.72,339.26,2.58,0000 0000 0000 0000 000000
2015-07-09 08:30:10,0.01,0.05,0.00,26.97,29.86,32.16,4.68,25.64,1005.87,2029.04,3437.95,3288.02,3578.31,349.69,339.23,2.61,0000 0000 0000 0000 000000
2015-07-09 08:35:12,0.03,0.05,0.00,27.01,29.91,32.21,4.52,25.63,1005.86,2029.00,3437.23,3287.90,3578.00,349.52,338.95,2.64,0000 0000 0000 0000 000000
2015-07-09 08:40:13,0.05,0.05,0.00,27.04,29.95,32.25,4.65,25.63,1005.87,2028.97,3436.93,3287.14,3577.32,349.89,339.39,2.67,0000 0000 0000 0000 000000
2015-07-09 08:45:15,0.01,0.05,0.00,27.07,29.99,32.28,4.58,25.57,1005.88,2028.91,3436.32,3286.94,3576.99,349.82,339.24,2.70,0000 0000 0000 0000 000000
2015-07-09 08:50:16,-0.04,0.05,0.00,27.10,30.03,32.33,4.54,25.58,1005.91,2028.33,3436.01,3286.25,3576.27,349.69,339.14,2.73,0000 0000 0000 0000 000000
2015-07-09 08:55:17,-0.01,0.05,0.00,27.14,30.07,32.36,4.67,25.62,1006.09,2028.04,3435.79,3286.01,3576.00,350.60,339.83,2.76,0000 0000 0000 0000 000000
2015-07-09 09:00:18,0.06,0.05,0.00,27.17,30.11,32.41,4.61,25.63,1006.06,2028.00,3435.04,3285.62,3575.57,349.71,339.14,2.79,0000 0000 0000 0000 000000
2015-07-09 09:05:19,0.02,0.06,0.00,27.20,30.16,32.45,4.65,25.62,1006.17,2028.00,3434.88,3285.06,3575.02,350.06,339.38,2.82,0000 0000 0000 0000 000000
2015-07-09 09:10:21,0.03,0.06,0.00,27.24,30.20,32.49,4.66,25.61,1006.23,2027.98,3434.11,3284.94,3574.69,349.94,339.29,2.85,0000 0000 0000 0000 000000
2015-07-09 09:15:22,0.00,0.06,0.00,27.27,30.24,32.53,4.63,25.77,1006.34,2027.79,3433.97,3284.15,3574.02,350.02,339.09,2.88,0000 0000 0000 0000 000000
2015-07-09 09:20:23,-0.05,0.06,0.00,27.31,30.28,32.57,4.61,25.77,1006.35,2027.23,3433.31,3284.00,3573.70,349.73,339.07,2.91,0000 0000 0000 0000 000000
2015-07-09 09:25:24,0.05,0.06,0.00,27.34,30.32,32.62,4.61,25.72,1006.36,2027.03,3432.72,3283.38,3572.97,350.26,339.55,2.93,0000 0000 0000 0000 000000
2015-07-09 09:30:25,0.07,0.06,0.00,27.37,30.36,32.65,4.71,25.77,1006.36,2027.00,3431.90,3282.64,3572.10,350.39,339.54,2.96,0000 0000 0000 0000 000000
2015-07-09 09:35:27,0.02,0.06,0.00,27.41,30.40,32.69,4.61,25.82,1006.38,2026.85,3431.45,3282.01,3571.15,349.96,338.94,2.99,0000 0000 0000 0000 000000
2015-07-09 09:40:28,-0.03,0.06,0.00,27.46,30.44,32.73,4.63,25.79,1006.41,2026.22,3430.70,3281.46,3570.63,349.82,338.87,3.02,0000 0000 0000 0000 000000
2015-07-09 09:45:29,0.04,0.06,0.00,27.52,30.48,32.75,4.64,25.69,1006.47,2026.04,3429.87,3280.79,3569.88,349.60,338.66,3.05,0000 0000 0000 0000 000000
2015-07-09 09:50:31,0.06,0.06,0.00,27.58,30.52,32.80,4.69,25.61,1006.54,2026.00,3428.94,3279.96,3568.99,350.26,339.28,3.08,0000 0000 0000 0000 000000
2015-07-09 09:55:32,0.08,0.06,0.00,27.62,30.56,32.84,4.60,25.67,1006.76,2026.00,3428.08,3279.08,3568.04,350.03,339.01,3.11,0000 0000 0000 0000 000000
2015-07-09 10:00:33,0.07,0.07,0.00,27.68,30.60,32.88,4.66,25.66,1006.83,2025.96,3427.31,3278.28,3567.05,350.22,339.12,3.14,0000 0000 0000 0000 000000
2015-07-09 10:05:34,0.06,0.07,0.00,27.73,30.64,32.92,4.62,25.70,1006.85,2025.82,3426.22,3277.44,3566.11,349.97,339.00,3.17,0000 0000 0000 0000 000000
2015-07-09 10:10:35,-0.05,0.07,0.00,27.77,30.68,32.96,4.62,25.63,1006.85,2025.26,3425.57,3276.97,3565.56,349.68,338.78,3.20,0000 0000 0000 0000 000000
2015-07-09 10:15:37,0.03,0.07,0.00,27.82,30.73,33.00,4.53,25.64,1006.85,2025.03,3425.02,3276.28,3565.01,349.34,338.20,3.23,0000 0000 0000 0000 000000
2015-07-09 10:20:38,0.06,0.07,0.00,27.87,30.77,33.04,4.63,25.57,1006.86,2025.00,3424.38,3275.77,3564.25,349.95,338.79,3.26,0000 0000 0000 0000 000000
2015-07-09 10:25:39,0.07,0.07,0.00,27.92,30.81,33.09,4.66,25.68,1006.97,2024.99,3423.61,3274.99,3563.51,350.20,338.92,3.29,0000 0000 0000 0000 000000
2015-07-09 10:30:40,0.07,0.07,0.00,27.98,30.86,33.14,4.64,25.63,1007.28,2024.96,3422.66,3274.14,3562.68,349.84,338.51,3.32,0000 0000 0000 0000 000000
2015-07-09 10:35:41,0.00,0.07,0.00,28.03,30.90,33.18,4.65,25.57,1007.32,2024.66,3421.85,3273.49,3561.80,349.83,338.82,3.34,0000 0000 0000 0000 000000
2015-07-09 10:40:42,-0.01,0.07,0.00,28.07,30.95,33.23,4.57,25.54,1007.30,2024.07,3421.02,3272.79,3560.99,349.64,338.35,3.37,0000 0000 0000 0000 000000
2015-07-09 10:45:43,0.06,0.08,0.00,28.11,30.99,33.28,4.60,25.57,1007.33,2024.00,3420.22,3272.06,3560.19,350.10,338.76,3.40,0000 0000 0000 0000 000000
2015-07-09 10:50:45,0.04,0.08,0.00,28.16,31.04,33.33,4.62,25.58,1007.34,2024.00,3419.76,3271.69,3559.78,350.04,338.67,3.43,0000 0000 0000 0000 000000
2015-07-09 10:55:46,0.03,0.08,0.00,28.21,31.09,33.39,4.63,25.56,1007.34,2023.93,3419.02,3271.01,3559.02,349.92,338.35,3.46,0000 0000 0000 0000 000000
2015-07-09 11:00:47,-0.01,0.08,0.00,28.25,31.14,33.44,4.68,25.59,1007.34,2023.40,3418.16,3270.20,3558.16,350.15,338.65,3.49,0000 0000 0000 0000 000000
2015-07-09 11:05:48,-0.02,0.08,0.00,28.31,31.18,33.50,4.66,25.61,1007.35,2023.06,3417.84,3269.99,3557.90,350.28,338.73,3.52,0000 0000 0000 0000 000000
2015-07-09 11:10:50,0.07,0.08,0.00,28.34,31.23,33.56,4.66,25.62,1007.35,2023.00,3417.08,3269.50,3557.12,350.00,338.26,3.55,0000 0000 0000 0000 000000
2015-07-09 11:15:51,0.02,0.08,0.00,28.38,31.28,33.60,4.65,25.63,1007.36,2022.98,3416.73,3269.01,3556.73,350.84,339.08,3.58,0000 0000 0000 0000 000000
2015-07-09 11:20:52,0.02,0.08,0.00,28.43,31.32,33.65,4.67,25.52,1007.39,2022.85,3416.04,3268.62,3556.04,350.14,338.46,3.61,0000 0000 0000 0000 000000
2015-07-09 11:25:54,-0.05,0.08,0.00,28.47,31.37,33.71,4.66,25.55,1007.40,2022.38,3415.88,3268.05,3555.82,350.10,338.30,3.64,0000 0000 0000 0000 000000
2015-07-09 11:30:55,0.01,0.08,0.00,28.50,31.41,33.75,4.62,25.55,1007.58,2022.07,3415.21,3267.93,3555.14,350.19,338.66,3.67,0000 0000 0000 0000 000000
2015-07-09 11:35:56,0.03,0.08,0.00,28.54,31.45,33.79,4.62,25.59,1007.57,2022.00,3414.97,3267.18,3554.93,349.97,338.29,3.70,0000 0000 0000 0000 000000
2015-07-09 11:40:57,0.05,0.08,0.00,28.55,31.49,33.84,4.61,25.50,1007.69,2021.99,3414.17,3266.91,3554.13,350.22,338.50,3.73,0000 0000 0000 0000 000000
2015-07-09 11:45:59,0.06,0.08,0.00,28.55,31.54,33.89,4.60,25.51,1007.80,2021.93,3413.19,3266.12,3553.32,349.86,338.14,3.75,0000 0000 0000 0000 000000
2015-07-09 11:51:00,-0.03,0.08,0.00,28.55,31.57,33.91,4.64,25.54,1007.82,2021.51,3412.14,3265.67,3552.84,349.71,338.03,3.78,0000 0000 0000 0000 000000
2015-07-09 11:56:02,-0.00,0.08,0.00,28.55,31.61,33.95,4.61,25.62,1007.83,2021.06,3411.94,3265.03,3552.09,349.59,337.72,3.81,0000 0000 0000 0000 000000
2015-07-09 12:01:02,0.02,0.08,0.00,28.54,31.65,33.97,4.60,25.60,1007.83,2021.00,3411.16,3264.93,3551.96,350.37,338.71,3.84,0000 0000 0000 0000 000000
2015-07-09 12:06:04,0.05,0.08,0.00,28.54,31.68,34.00,4.62,25.57,1007.83,2020.99,3410.99,3264.35,3551.33,349.90,338.36,3.87,0000 0000 0000 0000 000000
2015-07-09 12:11:05,0.01,0.09,0.00,28.53,31.71,34.02,4.63,25.58,1007.83,2020.97,3410.68,3264.01,3550.99,349.83,338.32,3.90,0000 0000 0000 0000 000000
2015-07-09 12:16:06,0.00,0.09,0.00,28.52,31.74,34.05,4.59,25.52,1007.83,2020.81,3410.04,3263.98,3550.45,349.90,338.28,3.93,0000 0000 0000 0000 000000
2015-07-09 12:21:07,-0.04,0.08,0.00,28.53,31.77,34.08,4.58,25.56,1007.83,2020.25,3409.74,3263.33,3550.00,349.22,337.50,3.96,0000 0000 0000 0000 000000
2015-07-09 12:26:09,0.01,0.08,0.00,28.54,31.80,34.09,4.59,25.63,1007.83,2020.02,3409.38,3263.01,3549.50,349.47,337.93,3.99,0000 0000 0000 0000 000000
2015-07-09 12:31:10,0.01,0.09,0.00,28.55,31.82,34.12,4.61,25.65,1007.83,2020.00,3409.01,3263.00,3549.03,350.10,338.40,4.02,0000 0000 0000 0000 000000
2015-07-09 12:36:11,0.04,0.09,0.00,28.55,31.85,34.14,4.60,25.74,1007.84,2019.99,3408.63,3262.69,3548.93,350.16,338.33,4.05,0000 0000 0000 0000 000000
2015-07-09 12:41:12,0.01,0.09,0.00,28.56,31.87,34.16,4.68,25.73,1007.84,2019.83,3407.99,3262.04,3548.18,350.16,338.49,4.08,0000 0000 0000 0000 000000
2015-07-09 12:46:14,0.02,0.09,0.00,28.57,31.90,34.18,4.65,25.64,1007.83,2019.81,3407.61,3261.99,3548.00,350.35,338.41,4.11,0000 0000 0000 0000 000000
2015-07-09 12:51:15,0.01,0.09,0.00,28.58,31.91,34.20,4.59,25.57,1007.84,2019.71,3407.01,3261.72,3547.89,350.28,338.52,4.14,0000 0000 0000 0000 000000
2015-07-09 12:56:16,0.02,0.09,0.00,28.58,31.94,34.22,4.57,25.58,1007.85,2019.25,3406.36,3260.90,3546.93,349.70,337.97,4.16,0000 0000 0000 0000 000000
2015-07-09 13:01:18,0.05,0.09,0.00,28.58,31.96,34.23,4.63,25.53,1007.92,2019.10,3405.05,3260.05,3546.04,350.18,338.58,4.19,0000 0000 0000 0000 000000
2015-07-09 13:06:18,0.01,0.09,0.00,28.59,31.97,34.26,4.68,25.57,1008.08,2019.02,3404.65,3259.99,3545.96,350.14,338.49,4.22,0000 0000 0000 0000 000000